Location: Betpouey
(42.8833°N, 0.0333°E)
Time: 07:45:19
(UTC+00:00)

Meteor 1-11 Rocket - Pass Details

Date: 01 December 2020
Orbit: 832 x 915 km, 81.2° (Epoch: 17 January)

Event Time Altitude Azimuth Distance (km) Brightness Sun altitude
Rises 19:17:11 0° 345° (NNW) 3,480 7.0 -30.6°
Reaches altitude 10° 19:19:40 10° 340° (NNW) 2,550 6.4 -31.1°
Maximum altitude 19:25:17 53° 266° (W) 1,094 4.5 -32.1°
Drops below altitude 10° 19:30:58 10° 191° (S) 2,580 6.3 -33.1°
Sets 19:33:30 0° 187° (S) 3,524 7.0 -33.6°
